Weather History for CYMX - January, 2013

Change the Weather History Date:

Saturday, January 5, 2013

  Actual Average Record
Temperature  
Mean Temperature 16 °F -  
Max Temperature 30 °F 20 °F 44 °F (2007)
Min Temperature 3 °F 7 °F -7 °F (1999)
Degree Days  
Heating Degree Days 48    
Moisture  
Dew Point 9 °F    
Average Humidity 69    
Maximum Humidity 93    
Minimum Humidity 53    
Precipitation  
Precipitation 0.00 in - - ()
Sea Level Pressure  
Sea Level Pressure 30.09 in    
Wind  
Wind Speed 8 mph ()    
Max Wind Speed 14 mph    
Max Gust Speed 28 mph    
Visibility 4.2 miles    
Events Snow    
Averages and records for this station are not official NWS values.
T = Trace of Precipitation, MM = Missing Value Source: Averaged Metar Reports

Daily Weather History Graph

Daily Weather History Graph

Search for Another Location

Airport or City:

Trip Planner

Search our weather history database for the weather conditions in past years. The results will help you decide how hot, cold, wet, or windy it might be!

Date:

Astronomy

Jan. 05, 2013 Rise Set
Actual Time 7:36 AM EST 4:27 PM EST
Civil Twilight 7:02 AM EST 5:00 PM EST
Nautical Twilight 6:25 AM EST 5:38 PM EST
Astronomical Twilight 5:49 AM EST 6:14 PM EST
Moon 12:29 AM EST (1/5) 11:24 AM EST (1/5)
Length of Visible Light 9h 58m
Length of Day
8h 50m
Last Quarter, 44% of the Moon is Illuminated
Jan 5
Last Quarter
Jan 11
New
Jan 18
First Quarter
Jan 26
Full
Feb 3
Last Quarter

Hourly Weather History & Observations

Time (EST) Temp. Windchill Dew Point Humidity Pressure Visibility Wind Dir Wind Speed Gust Speed Precip Events Conditions
12:00 AM 30.2 °F 19.8 °F 28.4 °F 93% 29.69 in 2.0 mi WSW 13.8 mph 24.2 mph N/A Snow Light Snow
12:38 AM 30.2 °F 20.2 °F 26.6 °F 86% 29.70 in 3.0 mi WSW 12.7 mph 26.5 mph N/A Snow Light Snow
1:00 AM 30.2 °F 20.8 °F 28.4 °F 93% 29.71 in 3.0 mi WSW 11.5 mph 25.3 mph N/A Snow Light Snow
2:00 AM 30.2 °F 20.8 °F 28.4 °F 93% 29.77 in 3.0 mi West 11.5 mph 26.5 mph N/A Snow Light Snow
2:17 AM 30.2 °F 21.3 °F 26.6 °F 86% 29.80 in 10.0 mi NW 10.4 mph 27.6 mph N/A Snow Low Drifting Snow
3:00 AM 28.4 °F 18.5 °F 17.6 °F 64% 29.84 in 25.0 mi WNW 11.5 mph 21.9 mph N/A Snow Low Drifting Snow
4:00 AM 26.6 °F 16.2 °F 15.8 °F 64% 29.89 in 25.0 mi West 11.5 mph 19.6 mph N/A   Partly Cloudy
5:00 AM 26.6 °F 16.8 °F 15.8 °F 64% 29.95 in 25.0 mi NW 10.4 mph 19.6 mph N/A   Mostly Cloudy
6:00 AM 21.2 °F 10.1 °F 8.6 °F 58% 30.04 in 25.0 mi NW 10.4 mph 19.6 mph N/A   Mostly Cloudy
7:00 AM 17.6 °F 7.3 °F 5.0 °F 58% 30.11 in 25.0 mi WNW 8.1 mph - N/A   Scattered Clouds
8:00 AM 15.8 °F 3.4 °F 5.0 °F 62% 30.17 in 25.0 mi NW 10.4 mph - N/A   Partly Cloudy
9:00 AM 15.8 °F 8.6 °F 3.2 °F 58% 30.22 in 45.0 mi WNW 4.6 mph - N/A   Partly Cloudy
10:00 AM 17.6 °F 7.3 °F 3.2 °F 53% 30.25 in 45.0 mi NW 8.1 mph - N/A   Partly Cloudy
11:00 AM 17.6 °F 9.3 °F 3.2 °F 53% 30.25 in 45.0 mi NW 5.8 mph - N/A   Partly Cloudy
12:00 PM 17.6 °F 12.3 °F 3.2 °F 53% 30.27 in 45.0 mi NW 3.5 mph - N/A   Partly Cloudy
1:00 PM 17.6 °F 10.7 °F 5.0 °F 58% 30.25 in 45.0 mi NW 4.6 mph - N/A   Partly Cloudy
2:00 PM 17.6 °F 7.3 °F 3.2 °F 53% 30.26 in 45.0 mi SW 8.1 mph - N/A   Partly Cloudy
3:00 PM 17.6 °F 7.3 °F 3.2 °F 53% 30.26 in 45.0 mi SW 8.1 mph - N/A   Partly Cloudy
4:00 PM 17.6 °F 10.7 °F 3.2 °F 53% 30.26 in 45.0 mi SW 4.6 mph - N/A   Partly Cloudy
5:00 PM 14.0 °F 6.5 °F 3.2 °F 62% 30.27 in 25.0 mi SW 4.6 mph - N/A   Partly Cloudy
6:00 PM 12.2 °F 6.1 °F 1.4 °F 62% 30.25 in 25.0 mi West 3.5 mph - N/A   Clear
7:00 PM 5.0 °F - -0.4 °F 78% 30.24 in 25.0 mi SSW 2.3 mph - N/A   Partly Cloudy
8:00 PM 5.0 °F - 1.4 °F 85% 30.25 in 25.0 mi Calm Calm - N/A   Mostly Cloudy
9:00 PM 3.2 °F - -0.4 °F 85% 30.24 in 25.0 mi Calm Calm - N/A   Partly Cloudy
10:00 PM 3.2 °F - -2.2 °F 78% 30.22 in 25.0 mi Calm Calm - N/A   Mostly Cloudy
11:00 PM 6.8 °F -0.1 °F 3.2 °F 85% 30.21 in 25.0 mi North 3.5 mph - N/A   Overcast